Temperature
22 23 25 25 25 25 24 23 22 22 21 21 21 20 21 21 21 21 21 22 22 22 22 23 22 22 22 21 21 21 21 20 21 21 20 20 20 19 19 19 19 19 18 18
22 24 24 24 24 25 24 23 22 22 21 21 21 21 21 21 21 20 20 21 21 21 22 22 21 21 21 21 21 21 20 20 20 20 20 20 19 19 19 19 19 18 18 18
20 22 23 22 23 23 22 22 22 21 21 20 20 20 20 20 20 20 20 21 21 21 21 21 21 21 20 20 20 20 20 20 20 20 19 19 19 19 18 18 18 18 18 18
18 21 21 21 22 23 22 21 21 20 20 20 19 20 20 20 20 20 20 20 20 20 20 20 20 20 20 20 20 20 20 20 19 19 19 19 18 18 18 18 18 18 18 18
17 19 20 21 21 22 20 19 19 19 19 19 19 19 19 19 20 20 20 20 20 20 20 20 20 20 20 20 20 20 20 19 19 19 18 18 18 18 18 18 18 18 18 17
17 19 19 20 21 22 20 18 18 18 18 18 18 17 17 18 19 19 19 19 19 19 19 19 19 19 20 19 19 19 19 19 19 18 18 18 18 18 18 17 17 17 17 17
17 17 18 19 20 21 19 18 18 18 18 18 17 17 17 18 18 18 18 19 19 19 19 19 18 18 18 18 18 18 18 18 18 18 18 18 17 17 17 17 17 17 17 17
15 16 17 18 18 17 17 18 18 18 18 18 18 18 18 18 17 18 18 18 18 18 17 18 18 18 18 17 17 17 17 17 17 17 17 17 17 17 17 17 17 16 16 16
15 15 16 17 17 17 18 17 17 17 17 18 17 17 17 17 17 17 17 17 17 17 17 17 17 17 17 17 16 16 16 16 16 16 16 16 16 16 16 16 16 16 16 16
14 15 15 16 17 17 17 17 17 17 17 17 17 17 17 16 16 16 16 16 16 16 16 16 16 16 16 16 15 15 15 16 16 16 15 15 16 16 16 15 15 16 15 15
14 14 15 16 16 16 17 17 17 17 17 17 16 16 16 16 16 15 15 15 15 15 15 15 15 15 15 15 15 15 15 15 15 15 15 15 15 15 15 15 15 15 15 15
13 14 13 14 15 16 16 16 16 16 16 16 16 16 16 15 15 15 15 15 15 15 15 14 14 14 14 14 14 14 14 14 14 14 14 14 14 14 14 14 14 14 14 14
15 15 15 15 15 15 16 16 16 16 16 15 15 16 15 15 15 14 14 14 14 14 14 14 14 14 14 14 14 14 14 14 14 14 14 14 14 14 14 14 14 14 14 14
15 15 14 15 15 15 15 15 15 15 15 15 15 15 15 14 14 14 14 14 14 14 14 13 13 13 13 13 13 13 13 13 13 13 13 13 13 13 13 13 13 13 13 13
14 15 14 14 15 15 15 15 15 15 14 14 14 14 14 14 14 14 14 14 14 13 13 13 13 13 13 13 13 13 13 12 12 12 12 12 12 12 12 12 12 12 12 12
14 14 14 14 14 14 14 14 14 14 14 14 14 14 14 14 13 13 13 13 13 13 13 13 12 12 12 12 12 12 12 12 12 12 12 12 12 12 12 12 11 11 11 11
14 14 14 14 14 14 14 14 14 14 13 13 13 13 13 13 13 13 13 13 13 12 12 12 12 12 12 11 11 11 11 11 11 11 11 11 11 11 11 11 11 11 11 11
14 14 14 14 14 14 13 13 13 13 13 13 13 13 13 13 12 12 12 12 12 12 11 11 11 11 11 11 11 11 11 11 11 11 11 11 11 11 10 10 10 10 10 10
14 14 14 13 13 13 13 13 13 13 12 12 12 12 12 12 12 12 11 11 11 11 11 11 10 11 10 10 10 10 10 10 10 10 10 10 10 10 10 10 10 10 10 9
13 13 13 13 13 13 12 12 12 12 12 12 12 11 11 11 11 11 11 11 10 10 10 10 10 10 10 10 10 10 10 10 10 10 10 10 10 10 9 9 9 9 9 9
13 13 13 13 12 12 12 12 12 11 11 11 11 11 11 11 10 10 10 10 10 10 10 10 10 10 10 10 10 10 10 10 9 9 9 9 9 9 9 9 9 9 9 9
12 12 12 12 12 11 11 11 11 11 11 11 11 11 10 10 10 10 10 9 9 9 9 9 9 9 9 10 10 10 9 9 9 9 9 9 9 9 9 9 9 9 8 8
12 12 12 11 11 11 11 11 11 11 11 11 10 10 10 10 9 9 9 9 9 9 9 9 9 9 9 9 9 9 9 9 9 9 9 9 9 9 9 8 8 8 8 8
12 11 11 11 11 11 11 10 10 10 10 10 10 10 10 10 9 9 9 9 9 9 9 9 9 9 9 9 9 9 9 9 9 9 8 8 8 8 8 8 8 8 7 7
11 11 11 11 11 10 10 10 10 10 10 10 10 10 10 10 10 9 9 9 9 9 9 9 9 9 9 9 9 9 8 8 8 8 8 8 8 8 8 8 7 7 7 7
11 11 10 10 10 10 10 10 10 10 10 10 10 10 10 10 9 9 9 9 9 9 9 9 9 9 9 8 8 8 8 8 8 8 8 8 8 8 7 7 7 7 7 7
11 10 10 10 10 10 10 10 10 10 10 10 10 10 10 9 9 9 9 9 9 9 9 9 9 8 8 8 8 8 8 8 8 8 8 7 7 7 7 7 7 7 7 7
Wind_Speed
4 4 2 3 5 3 1 5 6 6 6 6 4 6 7 8 9 10 9 8 8 7 6 6 4 2 2 4 5 5 5 6 7 7 6 6 6 6 6 6 6 6 5 5
3 3 4 4 5 3 1 1 4 5 2 3 2 5 6 7 10 10 9 8 7 7 6 4 3 2 1 2 3 5 5 5 5 5 5 6 6 5 5 6 5 5 5 5
3 4 4 4 4 0 1 2 4 4 4 3 4 6 7 7 8 9 10 9 8 8 6 4 3 3 1 0 2 4 4 4 4 4 5 5 6 5 5 6 5 5 6 5
1 3 3 6 2 3 6 5 5 4 3 4 5 5 5 6 9 8 7 8 7 7 6 4 3 3 2 1 2 2 2 3 4 4 4 4 5 6 6 5 5 6 6 6
3 2 4 4 4 1 3 4 4 5 6 6 7 8 7 5 5 6 5 5 6 6 6 5 4 4 4 3 3 2 1 3 3 5 5 5 5 5 5 5 5 5 5 5
3 3 4 5 6 2 6 2 4 4 6 6 6 4 1 2 5 6 5 4 3 4 5 4 3 3 5 3 2 2 3 3 3 4 5 5 6 5 3 3 4 4 4 4
3 4 4 5 8 4 2 4 1 3 5 5 3 4 3 3 4 4 4 4 4 4 3 3 3 4 4 2 1 2 3 2 3 3 3 4 4 3 3 3 3 3 2 2
2 2 4 6 4 2 4 2 3 4 4 5 5 5 5 4 4 4 4 4 4 4 2 1 2 4 3 1 1 2 2 2 2 2 2 2 2 2 3 3 3 3 3 2
4 4 3 1 3 2 3 4 3 4 4 6 6 4 4 3 2 2 2 2 2 3 3 1 2 3 2 2 3 3 2 2 1 1 1 2 3 2 2 2 3 3 3 3
2 1 1 3 5 5 5 4 3 3 4 4 4 4 3 2 2 2 1 1 1 2 2 1 1 1 1 1 1 1 2 2 1 1 1 1 1 2 2 2 3 3 3 3
1 1 3 5 4 3 3 4 3 2 1 2 3 3 2 2 2 2 1 1 2 1 2 2 1 0 0 1 1 2 3 2 1 1 1 1 1 1 2 2 3 4 4 4
2 3 2 2 2 2 3 3 2 2 1 1 3 3 3 2 1 1 1 1 2 1 1 1 1 0 1 1 1 1 1 1 1 0 1 1 2 1 3 1 1 2 4 4
3 2 2 2 1 1 2 2 2 2 1 1 2 2 2 2 1 0 0 1 1 1 1 1 1 1 2 1 1 0 1 1 1 1 1 2 2 3 2 2 3 2 0 2
1 2 1 1 1 2 1 2 2 3 3 1 2 1 1 1 0 0 1 1 1 1 1 1 0 1 2 1 0 0 1 1 1 1 2 2 2 2 3 3 1 1 2 1
1 2 3 2 1 2 2 2 3 3 2 3 1 1 1 1 0 1 1 1 2 3 1 1 1 2 3 1 1 0 1 1 1 1 1 2 2 2 2 2 2 1 0 1
2 2 3 2 1 0 1 2 2 1 1 1 1 1 1 1 1 1 2 2 3 2 1 1 1 2 2 1 1 1 1 1 1 1 1 2 2 3 3 3 3 2 2 2
3 2 2 1 0 0 1 0 0 0 1 1 1 1 2 3 3 3 2 2 2 1 1 0 1 2 1 0 1 1 2 1 1 0 1 2 2 3 3 3 3 3 2 2
3 3 3 3 1 0 1 2 2 3 2 1 1 2 3 3 3 1 1 2 3 3 2 2 2 1 1 1 1 1 1 1 1 1 1 1 2 2 3 3 3 3 2 2
3 3 3 3 2 2 2 3 3 3 3 3 3 3 3 3 3 2 2 3 2 2 3 3 3 2 2 2 2 0 0 0 1 1 0 1 1 2 2 3 3 3 3 3
4 4 4 4 4 4 3 3 3 3 3 4 4 4 4 3 3 3 4 3 2 1 2 3 3 3 3 3 2 0 0 0 0 1 0 1 2 2 2 2 2 2 3 3
3 3 4 4 4 4 3 3 3 3 2 3 4 3 3 3 3 4 4 3 4 4 3 3 3 3 3 3 2 1 1 1 1 0 0 1 1 1 2 2 3 3 3 3
2 4 4 4 5 3 3 3 3 3 3 3 3 3 4 4 3 3 3 1 2 3 3 3 3 4 4 4 2 3 3 2 2 1 1 1 1 2 2 2 2 2 3 3
3 4 4 4 3 3 3 3 3 3 3 3 2 2 2 2 2 2 1 2 1 2 2 2 3 6 7 4 3 3 3 2 2 2 2 2 2 1 2 2 2 3 3 3
3 3 3 3 4 4 3 2 2 2 2 2 1 1 2 1 0 1 1 1 0 0 1 2 4 6 6 4 3 3 3 2 2 2 2 2 2 2 1 2 2 2 3 4
4 3 3 4 3 2 1 1 2 2 2 1 1 1 1 1 1 1 1 1 1 0 1 2 4 4 3 3 2 2 2 2 2 2 2 2 2 2 1 2 2 2 3 3
3 3 2 2 2 2 1 1 1 1 2 1 1 1 1 0 0 0 0 0 1 0 1 1 1 2 2 2 2 2 2 2 2 2 1 1 2 2 2 1 2 2 3 3
3 2 2 1 1 0 1 1 1 1 2 2 1 0 1 0 0 0 0 0 0 0 1 1 1 1 1 1 1 2 2 2 1 1 1 1 2 1 1 2 2 2 2 3
Wind_Direction
216 239 276 302 304 309 210 195 188 205 184 210 198 155 143 130 123 119 122 122 118 118 114 111 112 129 168 183 176 176 178 185 198 196 189 189 192 193 191 191 194 194 193 196
334 323 342 331 325 320 336 136 150 130 182 227 163 118 118 126 127 127 128 126 126 124 119 116 130 141 165 173 175 159 163 197 202 190 186 192 198 195 191 194 193 190 197 198
286 311 7 317 305 320 46 42 153 177 210 170 119 125 138 129 122 131 135 135 136 138 142 151 164 151 123 227 135 143 161 176 180 186 194 199 196 193 200 203 196 197 205 204
170 37 235 241 286 107 94 54 59 93 111 122 131 119 104 117 125 129 132 138 144 146 148 156 163 139 128 107 111 128 168 187 189 184 183 195 194 197 207 206 204 204 204 204
127 189 267 299 329 333 115 33 20 97 100 93 100 74 49 49 87 111 121 133 143 147 146 150 150 140 131 126 144 159 210 226 212 197 195 195 200 204 209 205 207 208 202 200
135 159 227 266 301 287 103 50 340 95 117 114 97 98 199 59 73 77 77 87 110 123 121 120 116 109 117 127 125 184 222 239 227 208 199 199 203 204 202 201 209 206 208 203
166 201 248 290 317 24 115 218 243 95 103 96 97 161 164 94 76 86 84 76 82 88 97 116 115 105 106 125 179 262 260 250 233 219 211 202 194 192 189 194 190 186 188 209
149 180 253 316 25 95 194 183 119 95 89 92 105 116 114 95 81 78 67 63 78 92 80 82 100 100 88 29 309 317 315 284 253 229 220 189 167 180 182 182 178 176 170 197
181 203 235 8 98 119 134 111 97 91 88 102 104 114 114 115 123 108 90 68 84 111 107 50 83 101 85 350 351 360 348 305 299 295 202 190 171 169 171 173 184 193 183 193
51 7 8 48 62 58 75 87 82 93 106 115 134 137 124 118 100 89 111 132 119 113 115 88 37 81 106 308 340 343 327 316 269 210 263 218 176 166 158 179 193 187 194 207
50 327 14 22 27 41 45 59 75 56 88 120 139 138 140 145 160 172 175 148 123 133 147 169 190 216 297 334 349 334 328 328 303 234 172 138 93 115 164 210 208 195 202 193
221 238 170 256 304 14 46 39 64 86 54 143 156 164 151 159 171 177 184 153 147 167 187 193 185 307 331 336 352 354 330 330 325 263 176 170 157 87 48 53 48 173 187 186
193 197 172 223 286 344 52 36 28 52 29 240 163 160 160 159 186 163 341 192 191 204 212 200 185 305 311 327 24 58 266 276 293 243 192 188 184 168 156 22 29 35 134 192
210 125 87 265 267 326 15 36 56 62 42 67 142 148 136 109 80 239 249 235 177 123 137 142 122 298 294 299 332 267 272 273 246 226 190 194 195 189 180 175 185 300 322 266
246 162 182 187 90 355 347 51 69 65 45 24 42 80 87 68 342 277 268 113 85 79 68 69 42 315 315 330 13 288 263 268 259 231 197 191 195 188 184 183 184 184 134 356
215 155 135 126 139 8 19 39 53 51 60 48 32 57 72 88 82 34 23 64 87 71 45 65 2 310 325 346 346 318 292 275 274 229 215 205 190 177 178 180 180 177 181 191
146 141 130 120 227 347 16 341 333 340 13 26 55 88 80 73 61 47 33 43 79 76 25 18 290 300 323 27 31 311 312 322 333 289 225 207 184 175 175 176 178 179 189 189
157 154 148 153 156 64 14 26 38 54 78 88 75 82 88 84 72 47 23 43 61 41 10 336 318 344 16 25 358 301 304 304 285 249 228 190 181 178 177 177 177 174 171 163
94 91 106 120 116 96 81 59 57 65 71 75 72 69 74 79 84 80 71 78 78 35 341 345 1 10 347 338 349 337 359 336 321 302 230 166 158 165 171 179 185 182 173 166
87 87 94 90 83 82 77 67 72 62 64 74 74 74 71 66 68 69 66 56 14 307 321 352 4 1 342 334 347 44 68 332 294 304 305 165 171 179 179 177 173 164 161 163
95 94 92 87 80 72 70 76 87 80 69 83 94 93 83 68 73 76 67 33 341 346 5 6 2 346 337 339 360 33 52 53 48 45 145 155 158 159 154 153 153 153 156 158
92 97 92 89 92 81 63 68 85 88 81 80 89 92 84 70 63 56 46 21 319 353 17 18 10 11 14 25 56 71 69 62 55 53 72 111 133 146 149 147 148 153 157 162
105 107 100 97 101 94 70 76 90 93 89 93 96 96 107 120 126 115 15 320 339 23 32 17 16 25 29 42 56 66 68 66 58 55 65 80 97 118 136 145 152 151 150 152
113 110 107 102 95 91 85 79 84 89 97 107 108 121 125 113 32 268 208 245 290 39 23 354 17 29 38 52 59 58 57 56 56 54 59 69 83 92 114 139 149 154 151 146
119 113 106 102 98 109 136 100 69 78 92 85 60 65 128 158 178 246 253 231 241 22 338 349 14 32 45 55 58 50 48 49 53 55 68 79 82 83 82 111 137 143 146 148
101 105 114 136 158 171 155 128 131 147 121 81 22 1 8 20 97 64 38 326 321 360 357 345 3 27 39 40 39 42 47 40 42 39 50 75 75 76 78 93 122 135 141 148
84 85 83 58 13 37 141 130 128 131 140 143 142 13 20 32 63 80 115 17 30 32 351 345 353 358 20 37 43 49 52 47 41 36 52 74 81 82 86 107 127 137 143 150
Height
1469 1464 1462 1462 1461 1460 1466 1471 1480 1478 1476 1471 1468 1465 1465 1467 1468 1470 1472 1474 1475 1478 1480 1483 1487 1489 1491 1492 1495 1497 1499 1499 1500 1501 1503 1504 1505 1506 1507 1508 1508 1509 1509 1510
1469 1462 1461 1463 1460 1459 1461 1464 1468 1469 1473 1465 1465 1465 1466 1467 1469 1471 1473 1475 1476 1478 1480 1483 1486 1488 1489 1489 1491 1494 1496 1496 1498 1499 1500 1501 1502 1503 1503 1503 1504 1505 1505 1506
1481 1469 1467 1476 1466 1463 1464 1463 1464 1472 1470 1465 1466 1466 1466 1467 1469 1471 1473 1475 1477 1478 1480 1483 1485 1487 1488 1489 1490 1492 1493 1494 1495 1496 1496 1498 1499 1500 1499 1499 1500 1500 1501 1502
1482 1478 1489 1476 1460 1459 1463 1465 1463 1464 1464 1464 1465 1466 1467 1469 1470 1472 1474 1475 1478 1479 1480 1483 1485 1485 1487 1488 1488 1489 1490 1491 1491 1493 1493 1494 1495 1495 1496 1496 1496 1496 1496 1497
1487 1489 1483 1469 1462 1461 1465 1471 1466 1464 1465 1466 1466 1467 1470 1472 1473 1473 1475 1476 1477 1479 1480 1482 1483 1483 1483 1484 1485 1486 1486 1487 1487 1489 1490 1491 1492 1492 1492 1493 1493 1493 1493 1493
1483 1487 1489 1475 1461 1458 1462 1476 1469 1465 1464 1465 1465 1473 1475 1473 1475 1475 1476 1477 1478 1479 1479 1479 1479 1480 1480 1480 1482 1483 1484 1484 1484 1485 1486 1487 1488 1488 1489 1489 1489 1489 1489 1490
1482 1485 1481 1468 1461 1458 1476 1478 1469 1466 1465 1465 1466 1469 1472 1473 1473 1474 1475 1476 1477 1478 1478 1478 1478 1479 1479 1479 1479 1479 1479 1480 1481 1482 1483 1483 1483 1484 1485 1485 1485 1485 1485 1486
1483 1488 1485 1466 1463 1468 1472 1468 1467 1467 1467 1466 1467 1468 1469 1471 1472 1473 1473 1475 1476 1476 1476 1476 1477 1477 1476 1476 1476 1477 1477 1478 1478 1478 1478 1479 1480 1480 1481 1481 1481 1481 1480 1481
1477 1480 1472 1467 1467 1467 1466 1467 1467 1467 1467 1467 1467 1468 1469 1470 1472 1472 1472 1473 1473 1473 1473 1474 1473 1473 1473 1473 1474 1475 1474 1474 1475 1475 1474 1475 1475 1475 1476 1476 1477 1477 1477 1477
1474 1472 1470 1468 1467 1467 1467 1467 1467 1467 1467 1467 1466 1467 1467 1469 1470 1470 1470 1470 1470 1470 1470 1471 1470 1471 1471 1471 1472 1471 1471 1471 1471 1471 1471 1471 1471 1471 1471 1472 1473 1473 1473 1473
1474 1472 1470 1469 1468 1467 1467 1467 1467 1468 1467 1467 1467 1467 1467 1467 1467 1468 1469 1469 1469 1469 1468 1468 1468 1469 1469 1469 1469 1468 1468 1468 1467 1467 1467 1467 1467 1467 1467 1469 1469 1469 1470 1470
1475 1472 1472 1471 1469 1468 1467 1467 1467 1466 1466 1465 1466 1466 1466 1466 1466 1467 1467 1466 1466 1466 1466 1467 1467 1466 1466 1467 1467 1466 1465 1465 1464 1463 1463 1463 1462 1462 1463 1465 1465 1465 1466 1467
1469 1469 1470 1470 1469 1468 1467 1466 1466 1465 1465 1464 1464 1465 1465 1464 1464 1464 1464 1464 1464 1464 1464 1465 1464 1464 1464 1464 1464 1463 1462 1461 1460 1460 1460 1459 1459 1459 1459 1460 1461 1461 1462 1463
1467 1467 1468 1468 1467 1467 1466 1465 1464 1463 1463 1463 1463 1464 1463 1462 1463 1463 1463 1463 1462 1462 1462 1462 1462 1461 1461 1461 1460 1459 1459 1458 1457 1456 1456 1456 1456 1456 1456 1456 1457 1457 1458 1459
1466 1465 1466 1466 1466 1466 1465 1464 1462 1461 1461 1461 1461 1461 1462 1461 1461 1461 1461 1461 1460 1460 1459 1459 1459 1458 1458 1458 1457 1456 1455 1454 1454 1453 1453 1452 1453 1453 1453 1454 1454 1454 1455 1456
1464 1465 1465 1465 1464 1464 1464 1463 1461 1461 1460 1460 1460 1460 1460 1459 1459 1459 1459 1458 1457 1457 1456 1456 1456 1455 1455 1455 1454 1453 1452 1451 1450 1449 1449 1449 1449 1449 1450 1451 1451 1452 1452 1453
1463 1463 1463 1463 1462 1462 1462 1461 1460 1460 1459 1459 1458 1458 1457 1457 1457 1457 1456 1456 1455 1454 1454 1454 1453 1452 1452 1452 1451 1450 1449 1448 1447 1446 1446 1446 1446 1446 1447 1448 1449 1449 1450 1450
1461 1461 1461 1461 1461 1461 1460 1460 1459 1458 1458 1457 1457 1456 1455 1454 1454 1454 1454 1454 1453 1453 1452 1451 1451 1450 1449 1448 1448 1447 1447 1446 1445 1444 1444 1444 1443 1444 1445 1445 1446 1446 1447 1448
1460 1460 1460 1460 1460 1460 1459 1459 1458 1458 1457 1456 1456 1455 1454 1454 1453 1453 1452 1452 1451 1450 1450 1449 1448 1447 1446 1446 1446 1445 1444 1443 1442 1442 1441 1441 1441 1441 1442 1442 1443 1443 1444 1445
1459 1460 1460 1460 1460 1459 1459 1458 1458 1457 1457 1456 1455 1454 1454 1453 1453 1452 1452 1451 1450 1450 1449 1448 1447 1446 1445 1444 1444 1443 1442 1441 1440 1440 1439 1439 1439 1439 1440 1440 1440 1440 1441 1442
1459 1459 1459 1459 1459 1459 1459 1458 1457 1457 1457 1456 1455 1454 1454 1453 1453 1452 1451 1450 1450 1449 1448 1448 1446 1445 1444 1443 1443 1442 1441 1440 1439 1438 1438 1438 1438 1437 1437 1437 1437 1438 1439 1439
1458 1458 1458 1458 1458 1458 1459 1458 1458 1458 1457 1457 1456 1455 1454 1454 1454 1453 1452 1451 1451 1450 1449 1447 1446 1445 1444 1443 1442 1441 1441 1440 1439 1438 1437 1437 1436 1436 1436 1435 1435 1436 1436 1437
1457 1458 1458 1458 1458 1458 1459 1459 1459 1459 1458 1457 1457 1456 1456 1455 1455 1454 1453 1453 1451 1451 1450 1449 1448 1446 1445 1444 1443 1442 1441 1440 1439 1438 1437 1436 1436 1435 1435 1434 1434 1434 1435 1435
1457 1458 1458 1459 1459 1459 1459 1459 1459 1459 1459 1459 1458 1458 1457 1456 1456 1455 1455 1454 1453 1452 1451 1450 1449 1447 1446 1445 1443 1443 1442 1441 1439 1438 1437 1436 1435 1435 1434 1434 1434 1434 1434 1434
1458 1458 1459 1459 1459 1459 1460 1460 1460 1460 1460 1460 1460 1459 1458 1458 1457 1456 1456 1455 1454 1453 1452 1451 1450 1448 1447 1446 1445 1444 1442 1441 1440 1439 1438 1437 1436 1435 1434 1434 1433 1433 1433 1433
1458 1459 1459 1459 1459 1460 1460 1460 1460 1461 1461 1460 1460 1460 1459 1459 1458 1457 1457 1456 1455 1454 1453 1452 1450 1449 1448 1447 1446 1445 1443 1442 1441 1440 1439 1437 1436 1435 1434 1434 1433 1433 1433 1432
1459 1460 1460 1460 1460 1460 1460 1460 1460 1460 1461 1461 1460 1460 1460 1459 1459 1458 1457 1456 1455 1454 1453 1452 1451 1450 1449 1448 1447 1446 1444 1443 1442 1441 1439 1438 1437 1436 1435 1434 1433 1433 1432 1432